www.pogodaiklimat.ru
ПОГОДА в Форт Мид
Время
и дата
09:29 20.05
09:49 20.05
10:09 20.05
10:29 20.05
10:49 20.05
11:09 20.05
11:29 20.05
11:49 20.05
12:09 20.05
12:29 20.05
12:49 20.05
13:09 20.05
13:29 20.05
13:49 20.05
14:09 20.05
14:29 20.05
14:49 20.05
15:09 20.05
15:29 20.05
15:49 20.05
16:09 20.05
16:29 20.05
16:49 20.05
17:09 20.05
17:29 20.05
17:49 20.05
18:09 20.05
18:29 20.05
18:49 20.05
19:09 20.05
19:29 20.05
19:49 20.05
20:09 20.05
20:29 20.05
20:49 20.05
21:09 20.05
21:29 20.05
21:49 20.05
22:09 20.05
22:29 20.05
22:49 20.05
23:09 20.05
23:29 20.05
23:49 20.05
00:09 21.05
00:29 21.05
00:49 21.05
01:09 21.05
Ветер
(напр.,м/с)
Видим. Явления Облачность Т
(С)
Тd
(С)
f
(%)
Тe
(С)
Тes
(С)
Комфортность P
(гПа)
Po
(гПа)
Тmin
(С)
Tmax
(С)
R
(мм)
R24
(мм)
S
(см)
штиль 0 16 км 10/10 390 м +17.0 +15.0 88 +17 +17 1013.6
штиль 0 16 км 10/10 450 м +17.0 +15.0 88 +17 +17 1014.0
штиль 0 16 км 10/10 510 м +18.0 +15.0 83 +18 +18 1014.0
Ю 2 16 км 10/10 450 м +18.0 +15.0 83 +19 +19 1014.0
штиль 0 16 км 10/10 510 м +18.0 +15.0 83 +18 +18 1014.0
штиль 0 16 км 10/10 510 м +19.0 +15.0 78 +20 +20 1013.6
З 2 16 км 10/10 570 м +20.0 +16.0 78 +23 +23 комфорт 1013.6
штиль 0 16 км 10/10 570 м +20.0 +16.0 78 +22 +22 комфорт 1013.3
ЮВ 2 16 км 10/10 630 м +20.0 +16.0 78 +23 +23 комфорт 1013.0
СВ 2 16 км 8/8 630 м +21.0 +16.0 73 +25 +29 комфорт 1013.0
штиль 0 16 км 8/8 690 м +21.0 +16.0 73 +24 +30 комфорт 1012.6
В 2 16 км 5/5 750 м +22.0 +16.0 69 +26 +36 душно 1012.6
штиль 0 16 км 8/8 750 м +22.0 +16.0 69 +26 +31 душно 1012.3
штиль 0 16 км 5/5 810 м +23.0 +17.0 69 +28 +41 душно 1012.3
ЮЗ 2 16 км 5/5 930 м +23.0 +17.0 69 +28 +36 душно 1012.3
штиль 0 16 км 5/5 930 м +24.0 +17.0 65 +28 +39 душно 1012.0
В 2 16 км 5/5 930 м +24.0 +17.0 65 +28 +36 душно 1011.6
В 2 16 км ясно +24.0 +17.0 65 +28 +40 душно 1011.3
ЮВ 2 16 км ясно +24.0 +16.0 61 +27 +40 жарко 1011.3
штиль 0 16 км ясно +24.0 +16.0 61 +27 +44 жарко 1010.9
штиль 0 16 км ясно +24.0 +16.0 61 +27 +38 жарко 1010.9
ЮВ 2 16 км ясно +24.0 +17.0 65 +28 +36 душно 1010.9
ЮВ 3 16 км ясно +24.0 +17.0 65 +28 +34 душно 1010.6
ЮВ 3 16 км ясно +23.0 +18.0 73 +28 +32 душно 1010.6
ЮВ 3 16 км ясно +22.0 +17.0 73 +26 +30 душно 1010.6
ЮВ 3 16 км ясно +22.0 +17.0 73 +26 +30 душно 1010.6
ЮВ 3 16 км ясно +21.0 +17.0 78 +25 +26 комфорт 1010.9
ЮВ 2 16 км ясно +21.0 +17.0 78 +26 +27 душно 1011.3
ЮВ 2 16 км ясно +20.0 +16.0 78 +23 +24 комфорт 1011.3
ЮВ 2 16 км ясно +19.0 +16.0 83 +21 +21 комфорт 1011.3
В 2 16 км ясно +18.0 +16.0 88 +19 +19 1011.3
штиль 0 16 км ясно +17.0 +16.0 94 +17 +17 1011.3
штиль 0 16 км ясно +16.0 +16.0 100 +16 +16 1011.6
штиль 0 16 км ясно +16.0 +16.0 100 +16 +16 1011.6
штиль 0 16 км ясно +16.0 +15.0 94 +16 +16 1012.0
штиль 0 16 км ясно +16.0 +15.0 94 +16 +16 1012.3
штиль 0 16 км ясно +15.0 +15.0 100 +15 +15 1012.0
штиль 0 16 км ясно +15.0 +15.0 100 +15 +15 1012.0
штиль 0 16 км ясно +15.0 +15.0 100 +15 +15 1011.6
штиль 0 11 км ясно +14.0 +14.0 100 +13 +13 1011.6
штиль 0 16 км ясно +14.0 +14.0 100 +13 +13 1011.6
штиль 0 16 км ясно +14.0 +13.0 94 +14 +14 1011.6
штиль 0 11 км ясно +13.0 +13.0 100 +12 +12 1011.3
штиль 0 11 км ясно +13.0 +13.0 100 +12 +12 1011.6
штиль 0 11 км ясно +13.0 +13.0 100 +12 +12 1011.3
штиль 0 11 км ясно +13.0 +13.0 100 +12 +12 1011.3
штиль 0 11 км ясно +13.0 +13.0 100 +12 +12 1011.6
штиль 0 11 км ясно +12.0 +12.0 100 +11 +11 1011.3
Местоположение метеостанции Tipton Airport: широта 39.0833 долгота -76.7667 высота над уровнем моря 46 м.
В архиве по умолчанию представлена погода в Форт Мид за последние 1-2 суток. Обновление информации о фактической погоде в базе происходит ежечасно! Архивные данные за месяц целиком и за предыдущие месяцы Вы можете получить, выбрав интересующий диапазон дат из раскрывающегося списка и нажав кнопку "Ввод!".
Внимание! Архив погоды МЕТАР в базе сайта по станциям, не включенным в климатический монитор, хранится не более 60 дней. Нет смысла пытаться выбрать более раннюю дату.
*Определитесь, кто Вы:
Внимание! Время в таблицах - местное (без учета летнего времени). Для получения всемирного времени необходимо вычесть поправку, которая равна -5 ч.
Смотрите также архив погоды в соседних городах и на ближайших метеорологических станциях:
Партнеры нашего сайта:      
Пояснения к столбцам:
  • Ветер - указаны скорость ветра в м/с - средняя за 10 мин, порывы в срок и между сроками (в фигурных скобках) и направление, откуда дует ветер: С - северный,
  • СВ - северо-восточный, В - восточный, ЮВ - юго-восточный, Ю - южный, ЮЗ - юго-западный, З - западный, СЗ - северо-западный.
  • Видимость - горизонтальная дальность видимости в метрах или километрах. При видимости от 1 до 10 км при отсутствии осадков обычно наблюдается дымка, при ухудшении видимости до 1 км и менее - туман. В сухую погоду видимость может ухудшаться дымом, пылью или мглою.
  • Явления - указаны атмосферные явления, наблюдавшиеся в срок или в последний час перед сроком; фигурными скобками обозначены явления, наблюдавшиеся между сроками (за 1-3 часа до срока); квадратными скобками обозначены град или гололедные отложения с указанием их диаметра в мм.
  • Облачность - указаны через наклонную черту общая и нижняя облачность в баллах и высота нижней границы облаков в метрах; квадратными скобками обозначены формы облаков: Ci - перистые, Cs - перисто-слоистые, Cc - перисто-кучевые, Ac - высококучевые, As - высокослоистые, Sc - слоисто-кучевые, Ns - слоисто-дождевые, Cu - кучевые, Cb - кучево-дождевые. Подробнее классификацию облаков см. в Атласе облаков (PDF).
  • T - Температура воздуха - температура, измеренная на высоте 2 м над землей.
  • Td - Температура точки росы - температура, при понижении до которой содержащийся в воздухе водяной пар достигнет насыщения.
  • f - Относительная влажность воздуха - влажноcть воздуха, измеренная на высоте 2 м над землей.
  • Te - Эффективная температура - температура, которую ощущает одетый по сезону человек в тени. Характеристика душности погоды. При расчете учитывается влияние влажности воздуха и скорости ветра на теплоощущения человека.
  • Tes - Эффективная температура на солнце - температура, которую ощущает человек, с поправкой на солнечный нагрев. Характеристика знойности погоды. Зависит от высоты солнца над горизонтом, облачности и скорости ветра. Ночью, в пасмурную погоду, а также при ветре 12 м/с и более поправка равна нулю.
  • P - Атмосферное давление - приведенное к уровню моря атмосферное давление.
  • Po - Атмосферное давление - измеренное на уровне метеостанции атмосферное давление.
  • Tmin - Минимальная температура - минимум температуры воздуха на высоте 2 м над землей.
  • Tmax - Максимальная температура - максимум температуры воздуха на высоте 2 м над землей.
  • R - Количество осадков - Количество выпавших осадков за период времени, мм. При наведении курсора мыши на число - период времени, за который выпало указанное количество осадков.
  • R24 - Количество осадков - Количество выпавших осадков за 24 часа, мм.
  • S - Снежный покров - Высота снежного покрова, см. При наведении курсора мыши на число - состояние снежного покрова и степень покрытия местности в баллах.